Météo par heure à Juatuba

Ce jour, 20 Juin, Dimanche

Heure Température Précipitation Vent Pression Humidité
00:00 +15°C° 0 mm 2 m/s 702 mmHg 91%
01:00 +14°C° 0 mm 2 m/s 702 mmHg 91%
02:00 +14°C° 0 mm 2 m/s 701 mmHg 92%
03:00 +14°C° 0 mm 1 m/s 701 mmHg 93%
04:00 +14°C° 0 mm 1 m/s 701 mmHg 93%
05:00 +14°C° 0 mm 1 m/s 701 mmHg 92%
06:00 +13°C° 0 mm 1 m/s 701 mmHg 92%
07:00 +16°C° 0 mm 1 m/s 702 mmHg 82%
08:00 +18°C° 0 mm 2 m/s 702 mmHg 72%
09:00 +20°C° 0 mm 2 m/s 703 mmHg 63%
10:00 +22°C° 0 mm 3 m/s 702 mmHg 55%
11:00 +25°C° 0 mm 4 m/s 702 mmHg 48%
12:00 +28°C° 0 mm 4 m/s 702 mmHg 41%
13:00 +28°C° 0 mm 4 m/s 702 mmHg 40%
14:00 +28°C° 0 mm 5 m/s 701 mmHg 38%
15:00 +29°C° 0 mm 5 m/s 700 mmHg 37%
16:00 +27°C° 0 mm 3 m/s 700 mmHg 40%
17:00 +26°C° 0 mm 2 m/s 700 mmHg 44%
18:00 +24°C° 0 mm 1 m/s 700 mmHg 48%
19:00 +24°C° 0 mm 1 m/s 701 mmHg 49%
20:00 +23°C° 0 mm 1 m/s 701 mmHg 50%
21:00 +21°C° 0 mm 0 m/s 701 mmHg 51%
22:00 +22°C° 0 mm 1 m/s 701 mmHg 55%
23:00 +21°C° 0 mm 1 m/s 701 mmHg 58%

Demain, 21 Juin, Lundi

Heure Température Précipitation Vent Pression Humidité
00:00 +20°C° 0 mm 1 m/s 701 mmHg 62%
01:00 +20°C° 0 mm 1 m/s 701 mmHg 62%
02:00 +20°C° 0 mm 1 m/s 701 mmHg 62%
03:00 +20°C° 0 mm 1 m/s 701 mmHg 63%
04:00 +19°C° 0 mm 1 m/s 701 mmHg 67%
05:00 +18°C° 0 mm 1 m/s 701 mmHg 71%
06:00 +16°C° 0 mm 1 m/s 701 mmHg 75%
07:00 +20°C° 0 mm 1 m/s 702 mmHg 68%
08:00 +22°C° 0 mm 1 m/s 702 mmHg 61%
09:00 +24°C° 0 mm 1 m/s 703 mmHg 53%
10:00 +26°C° 0 mm 1 m/s 703 mmHg 48%
11:00 +28°C° 0 mm 1 m/s 703 mmHg 43%
12:00 +29°C° 0 mm 1 m/s 703 mmHg 37%
13:00 +30°C° 0 mm 2 m/s 702 mmHg 36%
14:00 +30°C° 0 mm 3 m/s 702 mmHg 35%
15:00 +30°C° 0 mm 3 m/s 701 mmHg 33%
16:00 +28°C° 0 mm 2 m/s 701 mmHg 38%
17:00 +26°C° 0 mm 2 m/s 701 mmHg 43%
18:00 +24°C° 0 mm 1 m/s 701 mmHg 48%
19:00 +23°C° 0 mm 1 m/s 701 mmHg 52%
20:00 +22°C° 0 mm 1 m/s 701 mmHg 55%
21:00 +21°C° 0 mm 1 m/s 701 mmHg 59%
22:00 +21°C° 0 mm 1 m/s 701 mmHg 61%
23:00 +20°C° 0 mm 1 m/s 701 mmHg 63%

Après-demain, 22 Juin, Mardi

Heure Température Précipitation Vent Pression Humidité
00:00 +20°C° 0 mm 1 m/s 701 mmHg 65%
01:00 +19°C° 0 mm 1 m/s 701 mmHg 67%
02:00 +19°C° 0 mm 1 m/s 701 mmHg 68%
03:00 +19°C° 0 mm 1 m/s 701 mmHg 70%
04:00 +18°C° 0 mm 1 m/s 701 mmHg 71%
05:00 +18°C° 0 mm 1 m/s 701 mmHg 73%
06:00 +18°C° 0 mm 1 m/s 701 mmHg 75%
07:00 +20°C° 0 mm 1 m/s 702 mmHg 68%
08:00 +22°C° 0 mm 1 m/s 702 mmHg 60%
09:00 +24°C° 0 mm 1 m/s 703 mmHg 53%
10:00 +26°C° 0 mm 1 m/s 703 mmHg 47%
11:00 +28°C° 0 mm 1 m/s 703 mmHg 41%
12:00 +30°C° 0 mm 2 m/s 703 mmHg 36%
13:00 +30°C° 0 mm 2 m/s 702 mmHg 34%
14:00 +31°C° 0 mm 2 m/s 701 mmHg 33%
15:00 +31°C° 0 mm 2 m/s 701 mmHg 32%
16:00 +29°C° 0 mm 2 m/s 701 mmHg 37%
17:00 +27°C° 0 mm 2 m/s 700 mmHg 41%
18:00 +25°C° 0 mm 1 m/s 700 mmHg 46%
19:00 +24°C° 0 mm 1 m/s 701 mmHg 49%
20:00 +24°C° 0 mm 1 m/s 701 mmHg 53%
21:00 +23°C° 0 mm 2 m/s 701 mmHg 56%
22:00 +21°C° 0 mm 2 m/s 702 mmHg 63%
23:00 +20°C° 0 mm 2 m/s 702 mmHg 71%

23 Juin, Mercredi

Heure Température Précipitation Vent Pression Humidité
00:00 +19°C° 0 mm 2 m/s 702 mmHg 78%
01:00 +18°C° 0 mm 2 m/s 702 mmHg 82%
02:00 +17°C° 0 mm 2 m/s 701 mmHg 86%
03:00 +17°C° 0 mm 2 m/s 701 mmHg 90%
04:00 +17°C° 0 mm 2 m/s 702 mmHg 91%
05:00 +16°C° 0 mm 2 m/s 702 mmHg 93%
06:00 +16°C° 0 mm 2 m/s 702 mmHg 94%
07:00 +18°C° 0 mm 2 m/s 703 mmHg 85%
08:00 +19°C° 0 mm 2 m/s 703 mmHg 76%
09:00 +21°C° 0 mm 3 m/s 704 mmHg 67%
10:00 +24°C° 0 mm 2 m/s 704 mmHg 60%
11:00 +26°C° 0 mm 2 m/s 704 mmHg 53%
12:00 +28°C° 0 mm 2 m/s 704 mmHg 46%
13:00 +28°C° 0 mm 2 m/s 703 mmHg 44%
14:00 +28°C° 0 mm 2 m/s 702 mmHg 43%
15:00 +28°C° 0 mm 2 m/s 702 mmHg 42%
16:00 +26°C° 0 mm 3 m/s 702 mmHg 50%
17:00 +24°C° 0 mm 3 m/s 702 mmHg 58%
18:00 +21°C° 0 mm 3 m/s 702 mmHg 66%
19:00 +19°C° 0 mm 3 m/s 702 mmHg 72%
20:00 +18°C° 0 mm 2 m/s 702 mmHg 78%
21:00 +17°C° 0 mm 2 m/s 703 mmHg 84%
22:00 +16°C° 0 mm 2 m/s 702 mmHg 86%
23:00 +16°C° 0 mm 2 m/s 702 mmHg 88%

24 Juin, Jeudi

Heure Température Précipitation Vent Pression Humidité
00:00 +15°C° 0 mm 2 m/s 702 mmHg 90%
01:00 +15°C° 0 mm 1 m/s 702 mmHg 91%
02:00 +15°C° 0 mm 1 m/s 702 mmHg 92%
03:00 +14°C° 0 mm 1 m/s 701 mmHg 92%
04:00 +14°C° 0 mm 1 m/s 701 mmHg 92%
05:00 +14°C° 0 mm 1 m/s 701 mmHg 92%
06:00 +14°C° 0 mm 1 m/s 701 mmHg 92%
07:00 +16°C° 0 mm 1 m/s 702 mmHg 83%
08:00 +18°C° 0 mm 2 m/s 703 mmHg 75%
09:00 +20°C° 0 mm 2 m/s 703 mmHg 66%
10:00 +23°C° 0 mm 2 m/s 703 mmHg 59%
11:00 +25°C° 0 mm 2 m/s 703 mmHg 52%
12:00 +27°C° 0 mm 2 m/s 702 mmHg 46%
13:00 +27°C° 0 mm 2 m/s 702 mmHg 43%
14:00 +28°C° 0 mm 2 m/s 701 mmHg 41%
15:00 +28°C° 0 mm 1 m/s 700 mmHg 39%
16:00 +26°C° 0 mm 2 m/s 700 mmHg 46%
17:00 +24°C° 0 mm 2 m/s 700 mmHg 53%
18:00 +21°C° 0 mm 2 m/s 700 mmHg 60%
19:00 +19°C° 0 mm 2 m/s 701 mmHg 68%
20:00 +18°C° 0 mm 2 m/s 701 mmHg 75%
21:00 +18°C° 0 mm 1 m/s 702 mmHg 83%
22:00 +16°C° 0 mm 1 m/s 701 mmHg 85%
23:00 +16°C° 0 mm 1 m/s 701 mmHg 87%

25 Juin, Vendredi

Heure Température Précipitation Vent Pression Humidité
00:00 +15°C° 0 mm 1 m/s 701 mmHg 89%
01:00 +15°C° 0 mm 1 m/s 701 mmHg 90%
02:00 +15°C° 0 mm 1 m/s 700 mmHg 90%
03:00 +15°C° 0 mm 1 m/s 700 mmHg 90%
04:00 +14°C° 0 mm 1 m/s 700 mmHg 90%
05:00 +14°C° 0 mm 1 m/s 701 mmHg 90%
06:00 +13°C° 0 mm 0 m/s 701 mmHg 89%
07:00 +18°C° 0 mm 1 m/s 701 mmHg 79%
08:00 +20°C° 0 mm 1 m/s 702 mmHg 68%
09:00 +23°C° 0 mm 1 m/s 702 mmHg 57%
10:00 +25°C° 0 mm 1 m/s 702 mmHg 51%
11:00 +28°C° 0 mm 1 m/s 702 mmHg 44%
12:00 +28°C° 0 mm 0 m/s 702 mmHg 38%
13:00 +30°C° 0 mm 1 m/s 702 mmHg 36%
14:00 +31°C° 0 mm 1 m/s 701 mmHg 35%
15:00 +31°C° 0 mm 1 m/s 701 mmHg 34%
16:00 +29°C° 0 mm 1 m/s 700 mmHg 40%
17:00 +26°C° 0 mm 1 m/s 700 mmHg 46%
18:00 +24°C° 0 mm 1 m/s 700 mmHg 52%
19:00 +23°C° 0 mm 1 m/s 701 mmHg 56%
20:00 +22°C° 0 mm 1 m/s 701 mmHg 60%
21:00 +21°C° 0 mm 1 m/s 701 mmHg 64%
22:00 +20°C° 0 mm 1 m/s 701 mmHg 67%
23:00 +20°C° 0 mm 1 m/s 701 mmHg 70%
Voir plus

Nous avons besoin de votre consentement

Meteoprog et ses fournisseurs de services peuvent stocker et accéder à des données personnelles telles que des cookies, des identifiants d'appareils ou d'autres technologies similaires sur votre appareil et traiter ces données pour personnaliser le contenu et les publicités, ainsi que pour fournir des fonctionnalités de médias sociaux et analyser le trafic.

  • Stocker et/ou accéder à des informations sur votre appareil

    Des cookies, des identifiants d'appareils ou d'autres informations peuvent être stockés ou accessibles sur votre appareil aux fins indiquées ci-dessus.

  • Annonces et contenus personnalisés, mesure des annonces et des contenus, connaissance de l'audience et développement de produits

    Les annonces et le contenu peuvent être personnalisés en fonction d'un profil. D'autres données peuvent être ajoutées pour mieux personnaliser les annonces et le contenu. Les performances des publicités et du contenu peuvent être mesurées. Il est possible d'obtenir des informations sur le public qui a vu les publicités et le contenu. Ces données peuvent être utilisées pour développer ou améliorer l'expérience de l'utilisateur, les systèmes et les logiciels.

En cliquant sur "J'accepte", vous autorisez l'utilisation de cookies, des identifiants d'appareils, des balises web ou d'autres technologies similaires. Vos paramètres peuvent être modifiés dans le navigateur de votre appareil.

Dans certains cas, des intérêts légitimes peuvent être invoqués plutôt qu'un consentement. Vous pouvez en savoir plus à ce sujet dans notre Politique de confidentialité et de cookies.